User: anonymous   Login
Location: Unspecified
(0.0000°N, 0.0000°E)
Time: 08:33:53
(UTC+00:00)
Language:

CSTB 1 - Orbit

View from above orbital plane
View from above orbital plane
View from above satellite
View from above satellite

Ground track
Ground track

The orbit data is extracted from the following two-line orbital elements,

1 31122U 07012F   18267.92408047 +.00000201 +00000-0 +49043-4 0  9994
2 31122 098.0806 219.2228 0079658 111.2602 249.7129 14.60769522608578
Epoch (UTC): 24 September 2018 22:10:40
Eccentricity: 0.0079658
inclination: 98.0806°
perigee height: 634 km
apogee height: 747 km
right ascension of ascending node: 219.2228°
argument of perigee: 111.2602°
revolutions per day: 14.60769522
mean anomaly at epoch: 249.7129°
orbit number at epoch: 60857

The dashed part of the orbit path shows where the satellite is in the earth's shadow,  

DLR